Regional Weather Roundup
Issued by NWS

Home | Current Version | Previous Version | Graphics & Text | Print | Product List | Glossary Off
Versions: 1 2 3 4 5 6 7 8 9 10 11 12 13 14 15 16 17 18 19 20 21 22 23 24 25 26 27 28 29 30 31 32 33 34 35 36 37 38 39 40 41 42 43 44 45 46 47 48 49 50

000
ASUS43 KTOP 211559
RWRKS

WEATHER ROUNDUP FOR KANSAS
NATIONAL WEATHER SERVICE GOODLAND KS
1100 AM CDT TUE OCT 21 2014

NOTE:  "FAIR" INDICATES FEW OR NO CLOUDS BELOW 12,000 FEET WITH NO
SIGNIFICANT WEATHER AND/OR OBSTRUCTIONS TO VISIBILITY.

KSZ001>006-013>018-027>032-041>047-211700-
NORTHWEST KANSAS

CITY           SKY/WX    TMP DP  RH WIND       PRES   REMARKS
GOODLAND       CLOUDY    56  55  97 S20       30.07S FOG
HAYS           PTSUNNY   61  52  72 SE7       30.10S
RUSSELL        PTSUNNY   65  56  72 SE8       30.08F
$$

KSZ061>065-074>080-084>089-211700-
SOUTHWEST KANSAS

CITY           SKY/WX    TMP DP  RH WIND       PRES   REMARKS
DODGE CITY     FOG       59  58  96 S8        30.10S VSB 1/2
ELKHART          N/A     68  51  54 SW10        N/A
GARDEN CITY    FOG       54  54 100 S6        30.09S VSB<1/4
GREAT BEND     SUNNY     66  57  72 SE13      30.09F
LIBERAL        SUNNY     61  55  82 SW6       30.11F
$$

KSZ066>073-081>083-090>101-211700-
SOUTHEAST KANSAS

CITY           SKY/WX    TMP DP  RH WIND       PRES   REMARKS
CHANUTE        SUNNY     67  59  75 MISG      30.13S
COFFEYVILLE    SUNNY     63  60  90 CALM      30.13S
HUTCHINSON     MOSUNNY   70  56  61 SE15      30.10F
NEWTON         SUNNY     66  54  63 SE9       30.14S
PARSONS        MOSUNNY   67  62  84 VRB5      30.15R
WICHITA INTL   MOSUNNY   71  55  56 SE12      30.11S
WICHITA JABRA  SUNNY     70  55  59 SE12      30.11F
WINFIELD       MOSUNNY   68  59  73 SE10      30.12S
$$

KSZ007>012-019>026-033>040-048>060-102>105-211700-
NORTHEAST KANSAS

CITY           SKY/WX    TMP DP  RH WIND       PRES   REMARKS
CONCORDIA      SUNNY     63  52  67 CALM      30.11S
EMPORIA        SUNNY     65  53  65 S8        30.13S
LAWRENCE       SUNNY     61  51  70 CALM      30.14S
MANHATTAN      SUNNY     62  50  64 CALM      30.12S
OLATHE IND     SUNNY     66  48  52 CALM      30.14S
OLATHE EXE     SUNNY     67  47  48 CALM      30.13S
SALINA         MOSUNNY   64  55  72 CALM      30.11F
TOPEKA BILLARD SUNNY     61  51  70 CALM      30.14S
TOPEKA FORBES  SUNNY     65  51  60 CALM      30.13S
$$



USA.gov is the U.S. government's official web portal to all federal, state and local government web resources and services.